www.pogodaiklimat.ru

Погода и климат >> Архив погоды >> Алжир >> Адрар


ПОГОДА в Адраре

  • Прогноз погоды в Адраре
  • Монитор погоды в Адраре

АРХИВ ПОГОДЫ в Адраре

Время (UTC), дата Ветер
(напр.,м/с)
 
Видим.   Явления Облачность Т
(С)
Тd
(С)
f
(%)
Тe
(С)
Тes
(С)
Комфортность P
(гПа)
Po
(гПа)
Тmin
(С)
Tmax
(С)
R
(мм)
R24
(мм)
S
(см)
15 12.01 СВ 8 10 км ясно +15.0 -3.6 27 +13 +14 1024.7 1025.0
18 12.01 С 5 10 км 3/0
[Ci sp]
+12.6 -5.4 28 +11 +11 1025.8 1026.0 +15.5
21 12.01 С 6 10 км ясно +8.0 -5.6 38 +5 +5 1027.4 1027.0
00 13.01 СВ 6 10 км ясно +5.2 -6.5 43 +1 +1 1026.9 1027.0
03 13.01 СВ 4 10 км ясно +2.8 -7.8 46 -1 -1 1027.5 1028.0
06 13.01 СВ 5 10 км ясно +1.0 -8.8 48 -4 -4 1027.6 1028.0 +0.6
09 13.01 СВ 3 10 км ясно +4.2 -6.4 46 +1 +4 1028.8 1029.0
12 13.01 СВ 6 10 км ясно +12.4 -2.3 36 +10 +14 1028.0 1028.0
15 13.01 С 6 10 км ясно +15.4 -2.8 28 +14 +16 1025.4 1025.0
18 13.01 С 5 10 км ясно +13.6 -4.7 28 +12 +12 1025.8 1026.0 +16.0
21 13.01 С 6 10 км ясно +8.2 -6.1 36 +5 +5 1026.6 1027.0
00 14.01 С 5 10 км ясно +6.3 -6.8 39 +3 +3 1025.6 1026.0
03 14.01 СВ 3 10 км ясно +3.3 -7.4 45 0 0 1025.2 1025.0
06 14.01 СВ 3 10 км ясно +1.4 -8.6 47 -2 -2 1025.0 1025.0 +1.0
09 14.01 С 3 10 км ясно +3.5 -7.1 46 +1 +4 1026.6 1027.0
12 14.01 СВ 4 10 км ясно +13.8 -1.9 34 +13 +20 1024.5 1025.0
15 14.01 СВ 3 10 км ясно +16.3 -4.9 23 +16 +19 1021.9 1022.0
18 14.01 С 3 10 км ясно +13.8 -3.5 30 +13 +13 1021.9 1022.0 +16.6
21 14.01 СВ 2 10 км ясно +8.8 -5.6 36 +8 +8 1022.3 1022.0
00 15.01 В 3 10 км ясно +6.5 -6.7 38 +5 +5 1020.9 1021.0
03 15.01 В 3 10 км ясно +3.0 -9.4 40 -0 -0 1020.5 1021.0
06 15.01 СВ 4 10 км ясно +2.0 -9.1 44 -2 -2 1020.4 1020.0 +1.8
09 15.01 В 2 10 км ясно +7.4 -6.0 38 +6 +10 1022.0 1022.0
12 15.01 СВ 2 10 км 1/0
[Ci sp]
+15.8 -2.9 28 +16 +25 1020.4 1020.0
15 15.01 С 3 10 км 1/0
[Ci sp]
+18.0 -4.3 22 +18 +22 1018.3 1018.0
18 15.01 С 3 10 км 1/0
[Ci sp]
+15.2 -6.0 23 +15 +15 1018.9 1019.0 +18.8
21 15.01 СЗ 4 10 км ясно +10.8 -7.3 27 +9 +9 1019.5 1020.0
00 16.01 С 3 10 км ясно +8.8 -6.5 33 +7 +7 1019.0 1019.0
03 16.01 С 3 10 км ясно +5.5 -8.0 37 +3 +3 1018.9 1019.0
06 16.01 СВ 4 10 км ясно +3.3 -9.5 38 -1 -1 1018.5 1019.0 +2.8
09 16.01 СВ 3 10 км ясно +7.8 -5.7 38 +6 +9 1019.7 1020.0
12 16.01 С 2 10 км 3/0
[Ci sp]
+18.4 -3.8 22 +19 +28 1018.8 1019.0
15 16.01 С 2 10 км 3/0
[Ci sp]
+20.4 -4.0 19 +21 +24 комфорт 1016.9 1017.0
18 16.01 СЗ 3 10 км 3/0
[Ci sp]
+16.0 -5.6 22 +16 +16 1017.6 1018.0 +20.5
21 16.01 С 5 10 км 3/0
[Ci sp]
+11.3 -5.3 31 +9 +9 1018.6 1019.0
00 17.01 СВ 4 10 км 3/0
[Ci sp]
+7.7 -7.2 34 +5 +5 1018.1 1018.0
03 17.01 СВ 3 10 км 3/0
[Ci sp]
+5.0 -8.9 36 +3 +3 1017.6 1018.0
06 17.01 СВ 3 10 км 3/0
[Ci sp]
+4.0 -8.8 39 +1 +1 1018.0 1018.0 +2.2
09 17.01 СВ 3 10 км 3/0
[Ci sp]
+6.0 -8.5 34 +4 +7 1019.2 1019.0
12 17.01 штиль 0 15 км 3/0
[Ci sp]
+18.0 -6.8 18 +18 +31 опасность
простуды
1018.4 1018.0
15 17.01 штиль 0 10 км 3/0
[Ci sp]
+20.0 -9.6 13 +19 +24 1016.1 1016.0
18 17.01 С 3 10 км 4/0
[Ci sp]
+17.8 -10.1 14 +18 +18 1016.0 1016.0 +21.0
21 17.01 С 4 10 км 5/0
[Ci sp]
+11.0 -8.4 25 +9 +9 1017.2 1017.0
00 18.01 СВ 4 10 км 5/0
[Ci sp]
+9.0 -9.7 26 +7 +7 1016.2 1016.0
03 18.01 СВ 4 10 км 5/0
[Ci sp]
+6.0 -10.7 29 +3 +3 1015.5 1016.0
06 18.01 СВ 4 10 км 4/0
[Ci sp]
+3.0 -11.2 34 -0 -0 1015.9 1016.0 +2.5
09 18.01 В 4 10 км 4/0
[Ac trans Ci sp]
+8.6 -6.5 34 +6 +8 1017.7 1018.0
12 18.01 СВ 3 10 км 3/0
[Ac trans Ci sp]
+18.3 -4.3 21 +18 +25 1016.5 1017.0
15 18.01 С 5 10 км 3/0
[Ci sp]
+20.2 -5.5 17 +20 +22 1014.3 1014.0
18 18.01 С 7 10 км 3/0
[Ci sp]
+16.4 -6.9 20 +15 +15 1015.3 1015.0 +20.5
21 18.01 С 6 10 км 3/0
[Ci sp]
+11.2 -5.5 31 +9 +9 1017.4 1017.0
00 19.01 С 5 10 км 3/0
[Ci sp]
+7.5 -6.2 37 +5 +5 1017.5 1018.0
03 19.01 С 5 10 км 3/0
[Ci sp]
+4.7 -6.6 44 +1 +1 1017.5 1018.0
06 19.01 С 4 10 км 3/0
[Ci sp]
+2.8 -7.3 47 -1 -1 1018.4 1018.0 +2.5
09 19.01 С 5 10 км 3/0
[Ci sp]
+7.3 -3.3 47 +4 +6 1020.3 1020.0
12 19.01 С 4 10 км ясно +15.7 -1.8 30 +15 +22 1021.1 1021.0

 

Местоположение метеостанции Адрар (Алжир): широта 27.88 долгота -0.18 высота над уровнем моря 283 м.

В архиве по умолчанию представлена погода в Адраре за последнюю неделю. Архивные данные за месяц целиком и за предыдущие месяцы, начиная с января 2011 года, Вы можете получить, выбрав интересующий диапазон дат из раскрывающегося списка и нажав кнопку "Ввод!".


*Определитесь, кто Вы:
робот инопланетянин человек

Внимание! Время в таблицах - всемирное. Для получения местного времени необходимо прибавить поправку, которая равна 1 ч.

Смотрите также архив погоды в соседних городах и на ближайших метеорологических станциях:

Погода в Тимимуне (Алжир) (159 км)
Погода в Ин-Салах (Алжир) (274 км)
Погода в Бени-Аббесе (Алжир) (316 км)
Погода в Эль-Голеа (Алжир) (421 км)
Погода в Бешаре (Алжир) (450 км)
Погода в Араке (Алжир) (490 км)
Погода в Abankor (Алжир) (520 км)
Погода в Айн-Сефра (Алжир) (545 км)
Погода в Ин-Зиза (Алжир) (561 км)
Погода в Moulay Lachen (Алжир) (594 км)

Пояснения к столбцам:

Ветер - указаны скорость ветра в м/с - средняя за 10 мин, порывы в срок и между сроками (в фигурных скобках) и направление, откуда дует ветер: С - северный, СВ - северо-восточный, В - восточный, ЮВ - юго-восточный, Ю - южный, ЮЗ - юго-западный, З - западный, СЗ - северо-западный.
Видимость - горизонтальная дальность видимости в метрах или километрах. При видимости от 1 до 10 км при отсутствии осадков обычно наблюдается дымка, при ухудшении видимости до 1 км и менее - туман. В сухую погоду видимость может ухудшаться дымом, пылью или мглою.
Явления - указаны атмосферные явления, наблюдавшиеся в срок или в последний час перед сроком; фигурными скобками обозначены явления, наблюдавшиеся между сроками (за 1-3 часа до срока); квадратными скобками обозначены град или гололедные отложения с указанием их диаметра в мм.
Облачность - указаны через наклонную черту общая и нижняя облачность в баллах и высота нижней границы облаков в метрах; квадратными скобками обозначены формы облаков: Ci - перистые, Cs - перисто-слоистые, Cc - перисто-кучевые, Ac - высококучевые, As - высокослоистые, Sc - слоисто-кучевые, Ns - слоисто-дождевые, Cu - кучевые, Cb - кучево-дождевые. Подробнее классификацию облаков см. в Атласе облаков (PDF).
T - Температура воздуха - температура, измеренная на высоте 2 м над землей.
Td - Температура точки росы - температура, при понижении до которой содержащийся в воздухе водяной пар достигнет насыщения.
f - Относительная влажность воздуха - влажноcть воздуха, измеренная на высоте 2 м над землей.
Te - Эффективная температура - температура, которую ощущает одетый по сезону человек в тени. Характеристика душности погоды. При расчете учитывается влияние влажности воздуха и скорости ветра на теплоощущения человека.
Tes - Эффективная температура на солнце - температура, которую ощущает человек, с поправкой на солнечный нагрев. Характеристика знойности погоды. Зависит от высоты солнца над горизонтом, облачности и скорости ветра. Ночью, в пасмурную погоду, а также при ветре 12 м/с и более поправка равна нулю.
P - Атмосферное давление - приведенное к уровню моря атмосферное давление.
Po - Атмосферное давление - измеренное на уровне метеостанции атмосферное давление.
Tmin - Минимальная температура - минимум температуры воздуха на высоте 2 м над землей.
Tmax - Максимальная температура - максимум температуры воздуха на высоте 2 м над землей.
R - Количество осадков - Количество выпавших осадков за период времени, мм. При наведении курсора мыши на число - период времени, за который выпало указанное количество осадков.
R24 - Количество осадков - Количество выпавших осадков за 24 часа, мм.
S - Снежный покров - Высота снежного покрова, см. При наведении курсора мыши на число - состояние снежного покрова и степень покрытия местности в баллах.